Lid_Strength_Index
2 2 2 3 2 2 2 2 2 2 1 3 4 3 4 4 4 4 4 1 0 -1 -1 1 1 2 2 4 4 4 12 13 11 10 8 5 7 5 4 6 5 5 5 4 2
2 2 2 2 2 2 2 2 2 2 2 2 3 4 3 3 5 6 0 -1 -1 -1 1 4 4 3 6 6 6 8 12 10 7 7 7 6 6 6 6 6 6 6 4 3 3
3 3 3 3 2 2 2 2 2 2 2 2 2 3 3 3 6 5 -1 -1 -1 -1 1 2 3 4 7 6 7 8 11 7 6 5 5 6 6 5 7 9 7 7 6 4 4
3 3 3 3 2 2 2 2 2 2 2 2 1 1 2 4 9 4 -1 -1 -1 -0 2 3 4 7 8 9 6 10 8 6 5 5 5 6 5 6 6 6 5 4 4 4 4
3 3 3 3 3 2 2 2 2 2 2 1 1 1 2 6 7 1 -1 -1 0 1 3 4 7 7 9 8 7 9 8 6 5 5 5 5 7 6 7 5 4 4 4 4 4
3 3 3 3 3 2 2 2 2 2 2 1 1 1 4 9 1 0 0 1 1 2 3 3 5 4 6 6 7 6 7 7 6 6 5 7 6 6 6 4 5 5 5 4 4
3 3 3 3 3 2 2 2 2 2 2 1 1 1 4 5 1 0 1 1 1 2 4 2 3 4 5 6 4 6 9 7 7 6 6 5 8 8 5 5 5 5 5 4 4
3 3 3 3 3 2 2 2 2 2 2 1 0 2 6 1 2 1 1 2 1 1 2 2 2 4 6 5 6 8 8 11 7 7 6 7 12 7 5 5 6 5 5 4 4
3 3 3 3 3 3 3 3 2 1 0 0 3 4 6 1 4 3 2 3 2 2 2 1 3 6 5 8 9 9 12 11 10 6 7 8 11 7 5 5 6 6 5 5 4
3 3 4 3 3 3 4 4 1 2 0 -0 1 6 4 5 5 4 3 2 3 4 4 4 6 8 7 9 13 11 12 11 11 8 8 10 10 7 6 6 6 6 5 5 4
3 4 4 3 3 4 5 4 5 6 4 6 6 4 4 4 3 4 2 3 4 5 8 7 9 10 9 9 8 8 10 11 9 7 8 10 10 9 8 7 6 6 5 5 5
4 4 4 4 4 4 5 5 3 4 6 3 3 3 3 4 6 4 3 6 6 8 7 8 10 7 6 7 9 10 10 9 9 7 8 9 11 10 8 7 6 6 6 5 5
4 4 4 4 4 6 4 3 1 2 7 5 4 6 6 5 6 6 4 5 6 8 8 10 8 6 8 9 9 10 12 10 9 8 7 10 12 10 8 6 6 5 5 5 5
4 4 4 4 6 4 4 2 2 3 9 8 7 6 5 5 7 4 3 5 7 8 8 9 7 7 9 9 9 13 8 8 8 11 12 9 16 12 10 8 7 6 5 5 5
4 4 5 6 6 5 3 3 3 5 15 7 7 4 5 7 6 6 4 6 8 7 9 9 8 9 9 8 8 10 7 8 8 10 13 12 14 13 9 10 8 7 6 5 4
4 4 5 5 5 5 4 3 4 10 13 9 7 8 8 7 7 5 5 6 6 8 8 9 7 9 9 7 8 7 9 9 10 12 15 12 13 13 12 10 8 6 5 5 4
5 5 6 3 3 3 3 4 10 13 7 9 9 8 8 8 8 7 8 10 11 13 12 9 9 8 8 11 8 9 11 15 15 15 14 12 12 12 8 7 7 6 6 5 4
6 7 5 3 3 4 4 7 13 9 9 8 8 8 8 8 9 8 9 11 9 10 11 11 13 10 8 10 11 10 11 15 17 16 14 11 13 11 7 6 7 5 5 5 5
6 3 3 2 3 3 6 11 11 8 7 7 8 9 10 9 9 9 10 10 9 9 12 12 11 8 7 8 9 11 13 11 14 12 14 11 10 8 7 7 6 6 6 5 5
4 2 2 1 1 3 7 10 8 7 6 7 10 8 9 10 10 10 9 8 8 7 9 10 13 9 9 8 8 10 6 13 13 16 16 14 13 13 10 9 7 7 7 6 5
3 5 2 1 2 5 9 8 6 6 5 7 8 8 8 9 9 9 8 8 7 7 7 9 11 10 9 9 10 11 12 12 13 13 16 16 14 9 9 8 8 7 6 6 5
3 7 2 2 6 6 8 6 7 6 5 6 6 8 8 8 9 9 9 8 6 7 9 8 11 13 11 9 7 10 12 11 14 15 14 13 13 7 8 7 7 7 6 5 5
5 5 2 3 8 8 7 6 6 6 6 6 7 6 6 8 9 8 7 6 6 7 9 9 11 15 13 11 9 11 10 9 11 12 14 14 14 7 8 7 6 7 7 6 5
5 8 4 4 5 6 7 7 7 5 6 6 6 6 7 8 8 9 8 6 6 7 2 6 11 12 15 13 11 11 10 10 12 14 14 13 12 10 8 8 7 7 6 6 5
4 6 5 8 7 6 6 6 7 7 6 5 6 6 7 10 9 9 7 7 6 6 7 8 12 11 9 9 9 9 9 9 12 11 13 12 12 9 8 8 7 6 6 6 6
6 6 5 6 6 7 7 7 7 6 6 7 6 6 6 9 8 9 8 8 9 7 9 8 11 10 11 8 9 10 9 9 9 9 10 11 10 8 8 6 7 6 6 6 6
2 2 5 7 6 7 7 6 6 5 5 5 5 6 7 6 5 6 7 7 9 10 9 9 10 11 13 9 9 12 9 9 10 9 10 12 10 7 7 8 8 7 6 6 6